Regional Weather Roundup
Issued by NWS

Home | Current Version | Previous Version | Text Only | Print | Product List | Glossary Off
Versions: 1 2 3 4 5 6 7 8 9 10 11 12 13 14 15 16 17 18 19 20 21 22 23 24 25 26 27 28 29 30 31 32 33 34 35 36 37 38 39 40 41 42 43 44 45 46 47 48 49 50

000
ASUS45 KCYS 281810
RWRWY

WYOMING REGIONAL WEATHER ROUNDUP
NATIONAL WEATHER SERVICE CHEYENNE WY
1100 AM MST SUN DEC 28 2014

NOTE:  "FAIR" INDICATES FEW OR NO CLOUDS BELOW 12,000 FEET
WITH NO SIGNIFICANT WEATHER AND/OR OBSTRUCTIONS TO VISIBILITY.

WYZ001-281900-
YELLOWSTONE NATIONAL PARK

CITY           SKY/WX    TMP DP  RH WIND       PRES   REMARKS
LK YELLOWSTONE   N/A     13   9  84 CALM      29.85R
6HR MIN TEMP:  11; 6HR MAX TEMP:  14; 6HR PCP:  0.02;

W YELLOWSTONE  NOT AVBL

$$
WYZ002>013-054>058-071-098>099-281900-
NORTHERN WYOMING

CITY           SKY/WX    TMP DP  RH WIND       PRES   REMARKS
JACKSON        LGT SNOW  18  16  93 SW9       29.90R VSB 1   WCI   6
CODY           CLOUDY    18  12  79 CALM      29.84S
GREYBULL       CLOUDY    10   5  80 NW3       29.94R
6HR MIN TEMP:   1; 6HR MAX TEMP:  10;

WORLAND        PTSUNNY    4  -1  80 S8        29.92R WCI  -9
6HR MIN TEMP:  -4; 6HR MAX TEMP:   5;

SHERIDAN       CLOUDY    19   9  65 N3        29.88R
6HR MIN TEMP:   9; 6HR MAX TEMP:  20;

BUFFALO        PTSUNNY   25  13  60 NW3       29.84S
6HR MIN TEMP:  15; 6HR MAX TEMP:  25;

GILLETTE       CLOUDY    22  13  68 SE3       29.86S
6HR MIN TEMP:  13; 6HR MAX TEMP:  22;

HULETT           N/A    N/A N/A N/A MISG        N/A
NEWCASTLE      FAIR      19  14  79 CALM      29.90F

$$
WYZ014>020-022>026-101>103-281900-
CENTRAL WYOMING

CITY           SKY/WX    TMP DP  RH WIND       PRES   REMARKS
BIG PINEY      CLOUDY     4   1  88 CALM      29.91F FOG
6HR MIN TEMP:  -7; 6HR MAX TEMP:   4; 6HR PCP: TRACE;

PINEDALE       LGT SNOW  10   7  85 CALM      29.91F
DUBOIS         NOT AVBL
LANDER         FAIR      13   4  67 W5        29.84S WCI   5
6HR MIN TEMP:   1; 6HR MAX TEMP:  14;

RIVERTON       FAIR       8   1  73 NE7       29.85F WCI  -3
6HR MIN TEMP:   6; 6HR MAX TEMP:  18;

CASPER         FAIR      23  11  60 SW23G30   29.86S WCI   7
6HR MIN TEMP:  20; 6HR MAX TEMP:  24;

DOUGLAS        FAIR      27  15  61 W5        29.85F WCI  22
6HR MIN TEMP:  22; 6HR MAX TEMP:  27;


$$
WYZ021-027>030-104>119-281900-
SOUTHERN WYOMING

CITY           SKY/WX    TMP DP  RH WIND       PRES   REMARKS
EVANSTON       LGT SNOW  22  18  85 SW23      29.93F FOG     WCI   6
6HR MIN TEMP:  15; 6HR MAX TEMP:  22; 6HR PCP: TRACE;

FORT BRIDGER   CLOUDY    25  20  79 W23G30    29.94F WCI  10
ROCK SPRINGS   LGT SNOW  18  15  88 S6        29.92F FOG     WCI  10
6HR MIN TEMP:  12; 6HR MAX TEMP:  18; 6HR PCP: TRACE;

DIXON          CLOUDY    22  12  64 SW16G22   30.00F WCI   8
RAWLINS        CLOUDY    21  12  68 SW24G37   29.86F WCI   4
6HR MIN TEMP:  15; 6HR MAX TEMP:  21; 6HR PCP: TRACE;

SARATOGA       CLOUDY    21  10  63 S7        29.91F WCI  13
LARAMIE        FAIR      18  10  71 SW24G31   29.81F WCI   0
6HR MIN TEMP:  15; 6HR MAX TEMP:  18;

CHEYENNE       FAIR      29  10  45 W9        29.84F WCI  20
6HR MIN TEMP:  16; 6HR MAX TEMP:  29;

TORRINGTON     CLOUDY    31  17  56 W8        29.89F WCI  23
6HR MIN TEMP:   5; 6HR MAX TEMP:  31;

PINE BLUFFS    CLOUDY    27  12  54 CALM      29.90F

$$



USA.gov is the U.S. government's official web portal to all federal, state and local government web resources and services.